Jackson, MI

5:11 AM EST on December 09, 2019 (GMT -0500)
Jackson County-Reynolds

Weather History for KJXN - August, 2019

Change the Weather History Date:

Thursday, August 29, 2019

  Actual Average Record
Temperature  
Mean Temperature 68 °F 68 °F  
Max Temperature 82 °F 79 °F 95 °F (1953)
Min Temperature 54 °F 57 °F 37 °F (1965)
Degree Days  
Heating Degree Days 0 1  
Month to date heating degree days 9 25  
Since 1 June heating degree days 67 91  
Since 1 July heating degree days 9 36  
Cooling Degree Days 3 4  
Month to date cooling degree days 152 156  
Year to date cooling degree days 557 521  
Since 1 June cooling degree days 547 484  
Growing Degree Days 18 (Base 50)    
Moisture  
Dew Point 57 °F    
Average Humidity 68    
Maximum Humidity 93    
Minimum Humidity 42    
Precipitation  
Precipitation 0.90 in 0.11 in 2.03 in (1975)
Month to date precipitation 1.72 3.24  
Year to date precipitation 21.91 20.69  
Sea Level Pressure  
Sea Level Pressure 29.92 in    
Wind  
Wind Speed 8 mph ()    
Max Wind Speed 23 mph    
Max Gust Speed 34 mph    
Visibility 9.1 miles    
Events Rain , Thunderstorm    
T = Trace of Precipitation, MM = Missing Value Source: Averaged Metar Reports

Daily Weather History Graph

Daily Weather History Graph

Search for Another Location

Airport or City:

Astronomy

Aug. 29, 2019 Rise Set
Actual Time 6:59 AM EDT 8:17 PM EDT
Civil Twilight 6:30 AM EDT 8:46 PM EDT
Nautical Twilight 5:55 AM EDT 9:20 PM EDT
Astronomical Twilight 5:18 AM EDT 9:57 PM EDT
Moon 5:41 AM EDT (8/29) 8:14 PM EDT (8/29)
Length of Visible Light 14h 15m
Length of Day
13h 17m
Waning Crescent, 1% of the Moon is Illuminated
Aug 29
Waning Crescent
Aug 30
New
Sep 5
First Quarter
Sep 14
Full
Sep 21
Last Quarter

Hourly Weather History & Observations

Time (EDT) Temp. Heat Index Dew Point Humidity Pressure Visibility Wind Dir Wind Speed Gust Speed Precip Events Conditions
12:56 AM 61.0 °F - 54.0 °F 78% 29.95 in 10.0 mi SSW 5.8 mph - N/A   Overcast
1:56 AM 60.1 °F - 54.0 °F 80% 29.95 in 10.0 mi SW 4.6 mph - N/A   Overcast
2:56 AM 59.0 °F - 53.1 °F 81% 29.95 in 10.0 mi SSW 5.8 mph - N/A   Mostly Cloudy
3:56 AM 55.9 °F - 52.0 °F 87% 29.96 in 10.0 mi SW 4.6 mph - N/A   Scattered Clouds
4:56 AM 57.0 °F - 52.0 °F 83% 29.97 in 10.0 mi Calm Calm - N/A   Clear
5:56 AM 55.0 °F - 52.0 °F 89% 29.98 in 10.0 mi Calm Calm - N/A   Clear
6:56 AM 55.0 °F - 52.0 °F 89% 29.99 in 10.0 mi Calm Calm - N/A   Clear
7:56 AM 55.9 °F - 53.1 °F 90% 30.00 in 10.0 mi Calm Calm - N/A   Clear
8:56 AM 61.0 °F - 55.0 °F 81% 30.00 in 10.0 mi North - - N/A   Clear
9:56 AM 66.9 °F - 57.0 °F 70% 29.99 in 10.0 mi South 8.1 mph - N/A   Clear
10:56 AM 70.0 °F - 55.0 °F 59% 29.99 in 10.0 mi SW 13.8 mph 18.4 mph N/A   Clear
11:56 AM 73.9 °F - 54.0 °F 50% 29.96 in 10.0 mi SW 12.7 mph 24.2 mph N/A   Clear
12:56 PM 75.9 °F - 54.0 °F 46% 29.96 in 10.0 mi SW 19.6 mph 27.6 mph N/A   Clear
1:56 PM 78.1 °F - 53.1 °F 42% 29.95 in 10.0 mi SSW 16.1 mph 26.5 mph N/A   Clear
2:56 PM 79.0 °F - 54.0 °F 42% 29.92 in 10.0 mi SSW 12.7 mph 24.2 mph N/A   Clear
3:56 PM 81.0 °F 80.8 °F 55.9 °F 42% 29.90 in 10.0 mi SW 13.8 mph 24.2 mph N/A   Clear
4:56 PM 81.0 °F 81.1 °F 57.9 °F 45% 29.87 in 10.0 mi SSW 16.1 mph 26.5 mph N/A   Scattered Clouds
5:56 PM 80.1 °F 80.7 °F 59.0 °F 48% 29.84 in 10.0 mi South 19.6 mph 32.2 mph N/A   Clear
6:56 PM 79.0 °F - 61.0 °F 54% 29.83 in 10.0 mi South 12.7 mph 23.0 mph N/A   Clear
7:56 PM 75.9 °F - 61.0 °F 60% 29.82 in 10.0 mi South 15.0 mph 23.0 mph N/A   Clear
8:56 PM 75.0 °F - 61.0 °F 62% 29.83 in 10.0 mi South 11.5 mph - N/A   Partly Cloudy
9:56 PM 75.0 °F - 61.0 °F 62% 29.83 in 10.0 mi SSW 17.3 mph 31.1 mph N/A   Partly Cloudy
10:56 PM 73.9 °F - 62.1 °F 66% 29.81 in 10.0 mi SSW 16.1 mph 28.8 mph 0.00 in   Clear
11:08 PM 73.9 °F - 62.1 °F 66% 29.85 in 10.0 mi SW 15.0 mph 32.2 mph N/A Thunderstorm Clear
11:16 PM 73.0 °F - 61.0 °F 66% 29.88 in 10.0 mi WNW 18.4 mph 33.4 mph N/A Thunderstorm Thunderstorm
11:27 PM 64.0 °F - 61.0 °F 90% 29.89 in 0.8 mi Variable 4.6 mph 25.3 mph 0.41 in Rain , Thunderstorm Heavy Thunderstorms and Rain
11:38 PM 64.0 °F - 61.0 °F 90% 29.90 in 0.8 mi WSW 6.9 mph - 0.66 in Rain , Thunderstorm Heavy Rain
11:56 PM 64.0 °F - 61.0 °F 90% 29.91 in 2.0 mi WSW 9.2 mph - 0.82 in Rain , Thunderstorm Heavy Thunderstorms and Rain